This is the latest recevied weather packets stored in our database for station/object HB9HFD-13. If no packets are shown the sender has not sent any weather packets the latest 10 day(s).
| Time | Temp. | Humidity | Pressure | Rain* | Wind** | Luminosity | Snow |
|---|---|---|---|---|---|---|---|
| 1787404786 | 26.11° C | 34% | 1017 hPa | 0 mm | - | - | - |
| 1787404485 | 26.11° C | 37% | 1016.9 hPa | 0 mm | - | - | - |
| 1787404185 | 25.56° C | 35% | 1017 hPa | 0 mm | - | - | - |
| 1787403885 | 25.56° C | 37% | 1017 hPa | 0 mm | - | - | - |
| 1787403585 | 24.44° C | 36% | 1017.1 hPa | 0 mm | - | - | - |
| 1787403284 | 24.44° C | 41% | 1017 hPa | 0 mm | - | - | - |
| 1787402984 | 24.44° C | 42% | 1017.1 hPa | 0 mm | - | - | - |
| 1787402684 | 25° C | 41% | 1017 hPa | 0 mm | - | - | - |
| 1787402383 | 24.44° C | 43% | 1017 hPa | 0 mm | - | - | - |
| 1787402083 | 24.44° C | 44% | 1017 hPa | 0 mm | - | - | - |
| 1787401783 | 23.89° C | 48% | 1017.1 hPa | 0 mm | - | - | - |
| 1787401483 | 23.89° C | 45% | 1017.1 hPa | 0 mm | - | - | - |
| 1787401182 | 24.44° C | 47% | 1017.1 hPa | 0 mm | - | - | - |
| 1787400882 | 23.89° C | 43% | 1017 hPa | 0 mm | - | - | - |
| 1787400582 | 24.44° C | 45% | 1017 hPa | 0 mm | - | - | - |
| 1787400282 | 24.44° C | 43% | 1017 hPa | 0 mm | - | - | - |
| 1787399981 | 24.44° C | 43% | 1017 hPa | 0 mm | - | - | - |
| 1787399681 | 24.44° C | 46% | 1017 hPa | 0 mm | - | - | - |
| 1787399381 | 23.89° C | 45% | 1017 hPa | 0 mm | - | - | - |
| 1787399081 | 23.89° C | 44% | 1017 hPa | 0 mm | - | - | - |
| 1787398780 | 23.89° C | 47% | 1017 hPa | 0 mm | - | - | - |
| 1787398480 | 23.89° C | 44% | 1017 hPa | 0 mm | - | - | - |
| 1787398180 | 23.89° C | 44% | 1017.1 hPa | 0 mm | - | - | - |
| 1787397879 | 23.33° C | 46% | 1017.1 hPa | 0 mm | - | - | - |
| 1787397579 | 23.89° C | 44% | 1017.1 hPa | 0 mm | - | - | - |
* Rain latest hour (hover to see other rain measurements)
** Current wind speed in m/s (hover to see current wind gust speed)